This is the latest recevied weather packets stored in our database for station/object W1SCW. If no packets are shown the sender has not sent any weather packets the latest 10 day(s).
| Time | Temp. | Humidity | Pressure | Rain* | Wind** | Luminosity | Snow |
|---|---|---|---|---|---|---|---|
| 1777735076 | 18.33° C | 67% | 1019.1 hPa | 0 mm | - | 541 W/m² | - |
| 1777734773 | 18.89° C | 69% | 1019.2 hPa | 0 mm | - | 534 W/m² | - |
| 1777734471 | 18.89° C | 69% | 1019 hPa | 0 mm | - | 527 W/m² | - |
| 1777734167 | 18.89° C | 70% | 1019.2 hPa | 0 mm | - | 520 W/m² | - |
| 1777733863 | 18.33° C | 71% | 1019.1 hPa | 0 mm | - | 511 W/m² | - |
| 1777733560 | 17.78° C | 74% | 1019 hPa | 0 mm | - | 499 W/m² | - |
| 1777733256 | 17.78° C | 75% | 1019.3 hPa | 0 mm | - | 486 W/m² | - |
| 1777732953 | 17.78° C | 75% | 1019.2 hPa | 0 mm | - | 474 W/m² | - |
| 1777732649 | 17.22° C | 76% | 1019.2 hPa | 0 mm | - | 458 W/m² | - |
| 1777732347 | 17.22° C | 76% | 1019 hPa | 0 mm | - | 444 W/m² | - |
| 1777732045 | 17.22° C | 77% | 1019.1 hPa | 0 mm | - | 428 W/m² | - |
| 1777731741 | 16.67° C | 77% | 1019 hPa | 0 mm | - | 413 W/m² | - |
| 1777731438 | 16.67° C | 77% | 1018.9 hPa | 0 mm | - | 396 W/m² | - |
| 1777731137 | 16.67° C | 79% | 1018.7 hPa | 0 mm | - | 381 W/m² | - |
| 1777730835 | 16.11° C | 81% | 1018.7 hPa | 0 mm | - | 368 W/m² | - |
| 1777730531 | 16.11° C | 80% | 1018.8 hPa | 0 mm | - | 352 W/m² | - |
| 1777730227 | 15.56° C | 81% | 1018.5 hPa | 0 mm | - | 334 W/m² | - |
| 1777729924 | 15.56° C | 82% | 1018.4 hPa | 0 mm | - | 317 W/m² | - |
| 1777729620 | 15.56° C | 82% | 1018.5 hPa | 0 mm | - | 301 W/m² | - |
| 1777729317 | 15° C | 83% | 1018.3 hPa | 0 mm | - | 285 W/m² | - |
| 1777729014 | 15° C | 84% | 1018.3 hPa | 0 mm | - | 264 W/m² | - |
| 1777728710 | 15° C | 85% | 1018.3 hPa | 0 mm | - | 236 W/m² | - |
| 1777728407 | 14.44° C | 86% | 1018.2 hPa | 0 mm | - | 250 W/m² | - |
| 1777728104 | 14.44° C | 87% | 1018.2 hPa | 0 mm | - | 230 W/m² | - |
| 1777727801 | 13.89° C | 88% | 1018.1 hPa | 0 mm | - | 191 W/m² | - |
* Rain latest hour (hover to see other rain measurements)
** Current wind speed in m/s (hover to see current wind gust speed)